[[{"header":{"parameterUnit":"m.s-1","parameterCategory":1,"la1":30.2991,"la2":30.254,"lo1":-89.0895,"lo2":-89.0444,"dy":0.0017,"dx":0.0017,"nx":28,"ny":28,"refTime":"2024-03-22T21:00:00:Z","depth":0,"parameterNumber":2,"parameterNumberName":"U-component_of_WINDS"},"data":[0,0,0,0,0,0,0,0,0,0,0,0,0,0,0,0,0,0,0,0,0,0,0,0,0,0,0,0,0,0,0,0,0,0,0,0,0,0,0,0,0,0,0,0,0,0,0,0,0,0,0,0,0,0,0,0,0,0,-3.4514,-3.4514,0,-3.4534,-3.4534,-3.4535,-3.4395,-3.4391,-3.4387,-3.4383,-3.4407,-3.4412,-3.4416,0,0,0,0,0,0,0,0,0,0,0,0,0,-3.4356,-3.436,-3.4514,-3.4514,-3.4515,-3.4534,-3.4534,-3.4535,-3.4396,-3.4391,-3.4386,-3.4382,-3.4406,-3.4411,-3.4416,0,0,0,0,0,0,0,0,0,0,0,0,0,-3.4406,-3.4361,-3.4514,-3.4448,-3.4442,-3.4534,-3.4535,-3.4535,-3.4397,-3.4391,-3.4385,-3.4379,-3.4404,-3.4411,-3.4417,-3.4575,0,0,-3.4437,-3.4439,0,0,0,0,0,0,0,0,-3.4403,-3.4412,-3.4457,-3.4452,-3.4446,-3.4456,-3.4487,-3.4548,-3.4398,-3.4414,-3.4383,-3.4377,-3.4429,-3.4433,-3.4449,-3.4576,-3.4577,-3.4437,-3.4441,-3.4444,-3.4446,0,0,0,0,0,0,0,-3.44,-3.441,-3.4522,-3.4458,-3.4451,-3.4417,-3.4417,-3.4498,-3.4454,-3.4412,-3.4402,-3.4406,-3.4424,-3.4444,-3.4449,-3.4578,-3.4437,-3.4443,-3.4447,-3.4449,-3.4832,-3.4838,0,0,0,0,0,0,-3.4405,-3.4408,-3.4521,-3.4523,-3.4409,-3.4425,-3.4425,-3.4459,-3.4453,-3.4446,-3.4411,-3.44,-3.4435,-3.4442,-3.4449,-3.4633,-3.4444,-3.445,-3.4454,-3.4826,-3.4834,-3.4841,0,0,0,0,0,0,-3.4402,-3.4417,-3.4521,-3.4463,-3.4473,-3.4434,-3.4473,-3.4462,-3.4481,-3.4452,-3.4444,-3.4439,-3.4431,-3.444,-3.4544,-3.4632,-3.4453,-3.4459,-3.4819,-3.4828,-3.4837,-3.5002,0,0,0,0,0,0,-3.4398,-3.4416,-3.4476,-3.4465,-3.4477,-3.4616,-3.4478,-3.4467,-3.4493,-3.4478,-3.4476,-3.447,-3.4427,-3.4535,-3.4551,-3.4637,-3.4464,-3.4811,-3.4823,-3.4834,-3.4989,-3.5016,-3.5039,0,0,0,0,0,-3.4393,-3.4523,-3.448,-3.4494,-3.4551,-3.4621,-3.4628,-3.4575,-3.45,-3.456,-3.454,-3.447,-3.4619,-3.4547,-3.4563,-3.4653,-3.4805,-3.482,-3.4833,-3.4977,-3.501,-3.5039,0,0,0,0,0,0,-3.4548,-3.4521,-3.4472,-3.4602,-3.4615,-3.4597,-3.4671,-3.4612,-3.4647,-3.4632,-3.4565,-3.4566,-3.4681,-3.4677,-3.4597,-3.4804,-3.4699,-3.4717,-3.4803,-3.4834,-3.4859,-3.4858,-3.4469,0,0,0,0,0,-3.4596,-3.4655,-3.4628,-3.4746,-3.4754,-3.4712,-3.474,-3.4698,-3.4709,-3.4714,-3.4702,-3.4716,-3.4765,-3.4799,-3.4843,-3.4987,-3.4984,-3.5056,-3.5082,-3.5103,-3.5119,-3.5193,-3.5225,-3.4887,-3.4887,-3.4887,0,0,-3.4699,-3.4691,-3.4733,-3.4776,-3.4781,-3.4843,-3.4717,-3.4789,-3.4834,-3.4725,-3.4821,-3.4813,-3.4824,-3.4948,-3.5002,-3.4948,-3.5212,-3.5121,-3.5138,-3.5143,-3.5211,-3.5243,-3.5271,-3.4897,-3.4895,-3.4893,0,0,-3.4917,-3.4917,-3.5014,-3.502,-3.5028,-3.4998,-3.5021,-3.5012,-3.5002,-3.5098,-3.5016,-3.5069,-3.5156,-3.5166,-3.5183,-3.5402,-3.5338,-3.5418,-3.5551,-3.5624,-3.565,-3.5673,-3.5751,-3.5779,-3.5435,-3.5435,-3.5435,0,-3.5043,-3.5133,-3.5071,-3.5148,-3.5169,-3.507,-3.5167,-3.5177,-3.52,-3.5217,-3.5156,-3.5261,-3.5262,-3.5385,-3.5438,-3.5456,-3.548,-3.5419,-3.5651,-3.5674,-3.5695,-3.5767,-3.5797,-3.5445,-3.5444,-3.5443,-3.5442,0,-3.5288,-3.5351,-3.5428,-3.545,-3.548,-3.5567,-3.5518,-3.5555,-3.551,-3.5487,-3.5585,-3.5581,-3.5622,-3.5648,-3.5605,-3.5765,-3.5732,-3.5663,-3.5555,-3.5738,-3.5805,-3.5832,-3.5459,-3.5455,-3.5452,-3.545,0,0,-3.5606,-3.559,-3.562,-3.5627,-3.5627,-3.5675,-3.5756,-3.5794,-3.5827,-3.5846,-3.5912,-3.5987,-3.5921,-3.594,-3.5897,-3.5961,-3.6133,-3.5883,-3.5883,-3.593,-3.6308,-3.6361,-3.6394,-3.609,-3.6095,-3.6099,-3.6307,0,-3.5818,-3.5955,-3.5901,-3.6043,-3.61,-3.6005,-3.6076,-3.6084,-3.6064,-3.6109,-3.6087,-3.614,-3.6051,-3.6061,-3.612,-3.61,-3.6208,-3.6084,-3.6152,-3.6155,-3.6152,-3.6429,-3.6485,-3.6682,-3.6333,-3.6338,-3.6341,0,-3.6085,-3.6111,-3.6258,-3.6245,-3.6267,-3.6332,-3.6361,-3.6406,-3.6412,-3.6392,-3.6412,-3.6355,-3.6433,-3.6326,-3.6433,-3.6349,-3.6373,-3.6367,-3.6374,-3.6378,-3.6259,-3.6441,-3.6743,-3.6773,-3.6382,-3.6378,-3.6376,0,-3.6301,-3.6374,-3.647,-3.648,-3.6468,-3.6515,-3.6512,-3.6512,-3.6538,-3.6563,-3.6579,-3.6614,-3.6634,-3.6663,-3.6616,-3.6542,-3.6729,-3.6618,-3.6715,-3.6717,-3.676,-3.6758,-3.707,-3.6776,-3.6775,-3.6775,-3.6774,0,-3.6544,-3.6637,-3.6567,-3.6627,-3.6728,-3.6664,-3.6767,-3.6754,-3.6754,-3.6809,-3.673,-3.6784,-3.6718,-3.6766,-3.673,-3.6823,-3.6833,-3.682,-3.6809,-3.6827,-3.6829,-3.6842,-3.6827,-3.6783,-3.6781,-3.6779,-3.6778,0,-3.6803,-3.676,-3.6859,-3.6838,-3.6835,-3.6911,-3.6892,-3.6947,-3.692,-3.6991,-3.7004,-3.6962,-3.7014,-3.6969,-3.702,-3.6995,-3.7119,-3.7089,-3.7117,-3.7109,-3.7208,-3.72,-3.754,-3.7581,-3.7261,-3.7264,-3.7267,0,-3.6961,-3.703,-3.7016,-3.7046,-3.7048,-3.7099,-3.7123,-3.7062,-3.7091,-3.7102,-3.7155,-3.7199,-3.7231,-3.7318,-3.7293,-3.7331,-3.7301,-3.7417,-3.7306,-3.7321,-3.7302,-3.7298,-3.7304,-3.744,-3.7444,-3.7447,-3.745,0,-3.7246,-3.722,-3.7258,-3.7288,-3.7319,-3.7341,-3.7356,-3.7386,-3.7323,-3.736,-3.741,-3.7435,-3.7485,-3.753,-3.7559,-3.7556,-3.7493,-3.7484,-3.7509,-3.7528,-3.7541,-3.7534,-3.7179,-3.7477,-3.7474,-3.7472,-3.7471,-3.747,-3.7458,-3.7515,-3.7512,-3.7557,-3.7561,-3.7577,-3.7626,-3.7604,-3.7645,-3.7679,-3.7641,-3.7702,-3.7704,-3.7736,-3.7741,-3.7788,-3.7739,-3.7775,-3.7784,-3.7794,-3.7808,-3.7533,-3.7793,-3.7792,-3.7792,-3.7791,-3.779,0,-3.7738,-3.7731,-3.7772,-3.7795,-3.783,-3.7765,-3.7777,-3.7811,-3.7866,-3.7872,-3.7905,-3.7962,-3.8004,-3.7982,-3.8018,-3.806,-3.8032,-3.8072,-3.8068,-3.8068,-3.785,-3.7825,-3.8094,-3.8094,-3.8094,-3.8094,-3.8094,-3.8094,-3.7888,-3.7979,-3.7952,-3.8044,-3.8037,-3.8095,-3.8108,-3.8121,-3.8126,-3.8193,-3.8227,-3.8211,-3.8205,-3.824,-3.8276,-3.8268,-3.8285,-3.8336,-3.8318,-3.8114,-3.8084,-3.8056,-3.8032,-3.834,-3.834,-3.8532,-3.8533,-3.8535]},{"header":{"parameterUnit":"m.s-1","parameterCategory":1,"la1":30.2991,"la2":30.254,"lo1":-89.0895,"lo2":-89.0444,"dy":0.0017,"dx":0.0017,"nx":28,"ny":28,"refTime":"2024-03-22T21:00:00:Z","depth":0,"parameterNumber":3,"parameterNumberName":"V-component_of_WINDS"},"data":[0,0,0,0,0,0,0,0,0,0,0,0,0,0,0,0,0,0,0,0,0,0,0,0,0,0,0,0,0,0,0,0,0,0,0,0,0,0,0,0,0,0,0,0,0,0,0,0,0,0,0,0,0,0,0,0,0,0,-3.0568,-3.0569,0,-3.0662,-3.0663,-3.0664,-3.0655,-3.0653,-3.0652,-3.065,-3.0745,-3.0749,-3.0752,0,0,0,0,0,0,0,0,0,0,0,0,0,-3.0376,-3.0379,-3.0568,-3.0569,-3.057,-3.0662,-3.0663,-3.0665,-3.0655,-3.0653,-3.0651,-3.065,-3.0744,-3.0748,-3.0753,0,0,0,0,0,0,0,0,0,0,0,0,0,-3.0464,-3.0381,-3.0568,-3.0577,-3.0578,-3.0662,-3.0663,-3.0665,-3.0655,-3.0653,-3.0651,-3.0649,-3.0742,-3.0748,-3.0753,-3.0834,0,0,-3.0771,-3.0774,0,0,0,0,0,0,0,0,-3.0459,-3.0471,-3.0574,-3.0576,-3.0578,-3.0645,-3.063,-3.0721,-3.0656,-3.0626,-3.065,-3.0648,-3.0713,-3.0721,-3.0744,-3.0838,-3.0842,-3.0772,-3.0775,-3.0778,-3.0779,0,0,0,0,0,0,0,-3.0453,-3.0467,-3.0605,-3.0576,-3.0578,-3.0575,-3.0585,-3.0648,-3.0681,-3.0628,-3.0628,-3.0639,-3.0714,-3.0738,-3.0746,-3.0844,-3.0772,-3.0777,-3.078,-3.0783,-3.1006,-3.1008,0,0,0,0,0,0,-3.0445,-3.0462,-3.0602,-3.0608,-3.0512,-3.058,-3.0591,-3.0625,-3.068,-3.0686,-3.0641,-3.0639,-3.0729,-3.0739,-3.0749,-3.0845,-3.0778,-3.0783,-3.0787,-3.1003,-3.1006,-3.1009,0,0,0,0,0,0,-3.0441,-3.0457,-3.0598,-3.0535,-3.0552,-3.0586,-3.0624,-3.0628,-3.0653,-3.069,-3.0695,-3.066,-3.0728,-3.0741,-3.0812,-3.0848,-3.0786,-3.0791,-3.1,-3.1004,-3.1008,-3.1038,0,0,0,0,0,0,-3.0435,-3.0456,-3.0488,-3.0536,-3.0556,-3.0661,-3.0626,-3.0632,-3.0663,-3.0661,-3.0709,-3.0715,-3.0727,-3.0804,-3.0818,-3.0855,-3.0796,-3.0997,-3.1002,-3.1006,-3.1034,-3.1042,-3.1049,0,0,0,0,0,-3.0428,-3.0493,-3.049,-3.0507,-3.0596,-3.0663,-3.0675,-3.0688,-3.0666,-3.0697,-3.0721,-3.0713,-3.0842,-3.0811,-3.0827,-3.0866,-3.0995,-3.1001,-3.1006,-3.1031,-3.1041,-3.1049,0,0,0,0,0,0,-3.0448,-3.0499,-3.0496,-3.0578,-3.0617,-3.0662,-3.0702,-3.0699,-3.0744,-3.074,-3.0754,-3.0765,-3.0836,-3.0859,-3.0823,-3.0945,-3.0915,-3.0924,-3.0928,-3.0938,-3.0946,-3.0939,-3.0801,0,0,0,0,0,-3.0462,-3.0513,-3.0555,-3.0623,-3.0642,-3.0669,-3.0698,-3.0705,-3.0745,-3.0761,-3.079,-3.0828,-3.0877,-3.0909,-3.0956,-3.1037,-3.1046,-3.1072,-3.108,-3.1086,-3.1093,-3.1135,-3.1147,-3.1027,-3.1027,-3.1027,0,0,-3.0492,-3.0526,-3.0557,-3.0628,-3.0658,-3.0709,-3.0683,-3.0738,-3.0776,-3.077,-3.0839,-3.0861,-3.0904,-3.098,-3.1015,-3.1001,-3.1128,-3.1093,-3.1097,-3.1101,-3.1142,-3.1153,-3.1163,-3.103,-3.103,-3.1029,0,0,-3.0571,-3.0603,-3.0662,-3.0693,-3.0739,-3.0756,-3.077,-3.0816,-3.083,-3.09,-3.0895,-3.094,-3.1024,-3.1055,-3.1081,-3.117,-3.1164,-3.1185,-3.1225,-3.1266,-3.1275,-3.1284,-3.1313,-3.1324,-3.1192,-3.1192,-3.1192,0,-3.0601,-3.0679,-3.0693,-3.0749,-3.0779,-3.0776,-3.0835,-3.0864,-3.0923,-3.0943,-3.0927,-3.1031,-3.1061,-3.1142,-3.1164,-3.1186,-3.1201,-3.1179,-3.1273,-3.1281,-3.1289,-3.1318,-3.133,-3.1194,-3.1194,-3.1194,-3.1194,0,-3.0713,-3.0767,-3.0809,-3.0866,-3.0901,-3.0959,-3.0979,-3.1013,-3.1016,-3.1034,-3.1104,-3.1139,-3.1192,-3.1212,-3.1216,-3.1294,-3.1283,-3.127,-3.124,-3.1303,-3.133,-3.1341,-3.1197,-3.1197,-3.1196,-3.1195,0,0,-3.0808,-3.0871,-3.0886,-3.0911,-3.0961,-3.1003,-3.1059,-3.1111,-3.1139,-3.1179,-3.1225,-3.1296,-3.1283,-3.1313,-3.132,-3.1357,-3.1422,-3.1338,-3.1339,-3.1351,-3.1508,-3.1517,-3.153,-3.1419,-3.1421,-3.1423,-3.1504,0,-3.0891,-3.0992,-3.1004,-3.1093,-3.1141,-3.1138,-3.1187,-3.1222,-3.124,-3.1283,-3.1302,-3.1351,-3.1331,-3.1349,-3.1385,-3.1407,-3.1454,-3.1401,-3.146,-3.1462,-3.1449,-3.1544,-3.1555,-3.163,-3.1515,-3.1516,-3.1518,0,-3.1002,-3.1045,-3.1138,-3.118,-3.1201,-3.1245,-3.1292,-3.1334,-3.1373,-3.1383,-3.1416,-3.1418,-3.1474,-3.1442,-3.1519,-3.1483,-3.1507,-3.1521,-3.1525,-3.153,-3.1493,-3.1551,-3.1654,-3.1665,-3.1535,-3.1534,-3.1532,0,-3.106,-3.1142,-3.1207,-3.1229,-3.128,-3.131,-3.1332,-3.1369,-3.1399,-3.144,-3.146,-3.1507,-3.1533,-3.1568,-3.1583,-3.1558,-3.1658,-3.1627,-3.1666,-3.1666,-3.1687,-3.1685,-3.1795,-3.1705,-3.1705,-3.1705,-3.1704,0,-3.1151,-3.1207,-3.1234,-3.1274,-3.1337,-3.135,-3.1412,-3.1432,-3.1465,-3.1508,-3.1508,-3.1548,-3.1565,-3.1608,-3.1619,-3.1679,-3.1691,-3.17,-3.1702,-3.17,-3.1698,-3.1716,-3.171,-3.1708,-3.1707,-3.1706,-3.1706,0,-3.1226,-3.1246,-3.1317,-3.1359,-3.1371,-3.1415,-3.145,-3.1488,-3.1505,-3.1559,-3.1573,-3.1599,-3.1649,-3.1667,-3.1728,-3.1735,-3.1805,-3.1803,-3.1792,-3.1792,-3.183,-3.1825,-3.1953,-3.1969,-3.187,-3.1871,-3.1872,0,-3.1282,-3.1326,-3.1372,-3.1401,-3.1424,-3.1471,-3.1501,-3.1516,-3.1547,-3.1594,-3.1626,-3.1675,-3.1716,-3.1795,-3.1819,-3.1864,-3.1863,-3.1905,-3.187,-3.1865,-3.1862,-3.1859,-3.1862,-3.1911,-3.1912,-3.1913,-3.1913,0,-3.1379,-3.1387,-3.1431,-3.1478,-3.1514,-3.1552,-3.1588,-3.1611,-3.1631,-3.1666,-3.1717,-3.1748,-3.1809,-3.1858,-3.1904,-3.1926,-3.1922,-3.1924,-3.1935,-3.1933,-3.1923,-3.1927,-3.1808,-3.1921,-3.192,-3.192,-3.1919,-3.1919,-3.1446,-3.1483,-3.1521,-3.157,-3.1598,-3.1632,-3.1669,-3.1691,-3.1734,-3.1785,-3.179,-3.1845,-3.188,-3.1943,-3.1966,-3.2008,-3.1996,-3.2013,-3.2017,-3.2021,-3.2023,-3.1918,-3.2017,-3.2016,-3.2016,-3.2016,-3.2016,0,-3.1541,-3.1565,-3.1609,-3.166,-3.1698,-3.1692,-3.1731,-3.1763,-3.1811,-3.1845,-3.1884,-3.1941,-3.1988,-3.2015,-3.2061,-3.2089,-3.2089,-3.2101,-3.2098,-3.2103,-3.2031,-3.2016,-3.2101,-3.2101,-3.2101,-3.2101,-3.21,-3.21,-3.1595,-3.1658,-3.1669,-3.1746,-3.1769,-3.1822,-3.1845,-3.1875,-3.1902,-3.1967,-3.2006,-3.2023,-3.2054,-3.2102,-3.2144,-3.215,-3.2167,-3.218,-3.2185,-3.2117,-3.2108,-3.21,-3.2086,-3.2184,-3.2184,-3.2253,-3.2254,-3.2254]}]]